Regional Weather Roundup
Issued by NWS

Home | Current Version | Previous Version | Text Only | Print | Product List | Glossary Off
Versions: 1 2 3 4 5 6 7 8 9 10 11 12 13 14 15 16 17 18 19 20 21 22 23 24 25 26 27 28 29 30 31 32 33 34 35 36 37 38 39 40 41 42 43 44 45 46 47 48 49 50

000
ASUS45 KCYS 240810
RWRWY

WYOMING REGIONAL WEATHER ROUNDUP
NATIONAL WEATHER SERVICE CHEYENNE WY
100 AM MST FRI FEB 24 2017

NOTE:  "FAIR" INDICATES FEW OR NO CLOUDS BELOW 12,000 FEET
WITH NO SIGNIFICANT WEATHER AND/OR OBSTRUCTIONS TO VISIBILITY.

WYZ001-240900-
YELLOWSTONE NATIONAL PARK

CITY           SKY/WX    TMP DP  RH WIND       PRES   REMARKS
LK YELLOWSTONE   N/A      5   3  91 CALM      29.75S
W YELLOWSTONE  NOT AVBL

$$
WYZ002>013-054>058-071-098>099-240900-
NORTHERN WYOMING

CITY           SKY/WX    TMP DP  RH WIND       PRES   REMARKS
JACKSON        MOCLDY    18  16  93 CALM      29.78R
CODY           FAIR      17  14  88 NE3       29.89S
GREYBULL       LGT SNOW  25  22  88 W9        29.91S FOG     WCI  15
WORLAND        LGT SNOW  23  23 100 W6        29.91S FOG     WCI  16
SHERIDAN       CLOUDY    23  18  81 SE10      29.95S WCI  12
BUFFALO        LGT SNOW  19  15  84 SW5       29.92S FOG     WCI  12
GILLETTE       CLOUDY    24  21  88 NE5       29.93S FOG     WCI  18
HULETT         CLOUDY    23  19  86 MISG      29.96S
NEWCASTLE      LGT SNOW  23  23 100 NW3       29.94S

$$
WYZ014>020-022>026-101>103-240900-
CENTRAL WYOMING

CITY           SKY/WX    TMP DP  RH WIND       PRES   REMARKS
BIG PINEY      CLOUDY    17  13  84 SW9       29.77R WCI   6
PINEDALE       LGT SNOW  18  12  79 CALM      29.77S
DUBOIS         FLURRIES  12  10  92 SE8       29.76S WCI   1
LANDER         LGT SNOW  18  16  92 W3        29.85S FOG
RIVERTON       LGT SNOW  18  17  96 NE5       29.86R VSB 1   WCI  11
CASPER         CLOUDY    15  12  88 NE12      29.85S WCI   2
DOUGLAS        FLURRIES  14  11  87 CALM      29.90S

$$
WYZ021-027>030-104>119-240900-
SOUTHERN WYOMING

CITY           SKY/WX    TMP DP  RH WIND       PRES   REMARKS
EVANSTON       LGT SNOW  16  12  84 W9        29.78R FOG     WCI   4
FORT BRIDGER   LGT SNOW  18  18 100 CALM      29.81S
ROCK SPRINGS   LGT SNOW  15  11  83 N8        29.77S FOG     WCI   4
DIXON          FLURRIES  19  13  77 SW13      29.76R WCI   7
RAWLINS        FLURRIES  13   7  77 NE21      29.71S WCI  -5
SARATOGA       CLOUDY    16   9  73 SE9       29.69S WCI   4
LARAMIE        CLOUDY     5   2  87 CALM      29.73S
CHEYENNE       LGT SNOW  14  10  84 N10       29.80S FOG     WCI   1
TORRINGTON     LGT SNOW  21  17  84 NE16      29.90S FOG     WCI   7
PINE BLUFFS    CLOUDY    19  18  93 N15G29    29.85R WCI   5

$$



USA.gov is the U.S. government's official web portal to all federal, state and local government web resources and services.